Wind_Speed
101 102 102 102 102 102 102 102 102 102 102 102 101 100 100 99 98 98 97 97 97 97 98 98 98 97 97 96 95 94 93 92 92 91 91 91 91 91 91 90 89 89 88 87 86 86 85 86 86 86 86 87 87 88 88 89 89 89 90 90 90 90 91 91 91 91 92 92 92 93 93 94 94 95 95 96 96 97 97 97 98 98 98 99 99 99
102 102 102 102 102 102 102 102 102 101 101 101 100 100 99 99 98 98 98 98 98 98 99 99 99 98 97 97 96 95 94 94 93 93 93 93 92 92 91 91 90 89 88 88 87 87 87 87 88 88 88 89 89 89 90 90 90 91 90 91 91 91 91 91 92 92 92 93 93 94 94 95 95 96 96 97 97 98 99 99 99 99 100 100 100 101
102 102 101 101 101 101 101 101 101 100 100 100 99 99 98 98 98 98 98 99 99 99 99 99 99 98 98 97 96 96 95 95 95 95 94 94 93 93 92 91 90 90 89 89 89 89 89 89 89 90 90 90 90 90 90 91 91 91 91 91 91 91 91 92 92 93 93 94 94 95 95 96 97 97 98 98 99 99 100 100 101 101 101 101 102 102
101 101 100 100 100 100 100 99 99 99 99 99 98 98 98 98 98 98 99 99 100 100 100 100 99 99 98 98 97 97 97 96 96 96 95 95 94 93 92 92 91 91 91 91 91 91 91 91 91 91 91 91 91 91 91 91 91 91 91 91 91 92 92 93 93 94 94 95 96 96 97 98 98 99 100 100 100 101 101 102 102 102 103 103 103 103
100 99 99 99 98 98 98 98 98 98 98 97 97 97 97 97 98 99 99 100 100 100 100 100 100 99 99 99 99 98 98 98 97 96 96 95 95 94 93 93 93 92 92 92 92 92 92 92 91 91 91 91 91 91 91 91 91 91 91 92 92 93 93 94 94 95 96 97 97 98 99 100 100 101 101 102 102 103 103 103 103 103 104 104 104 104
98 97 97 97 97 97 97 97 97 97 96 96 96 97 97 97 98 99 99 100 100 100 100 100 100 100 100 100 99 99 99 98 97 97 96 96 95 95 94 94 94 94 94 94 93 93 93 92 92 91 91 91 91 91 91 92 92 92 93 93 93 94 95 96 96 97 98 99 99 100 101 101 102 102 103 103 103 104 104 104 104 105 105 105 105 105
96 95 95 95 95 95 96 96 96 95 96 96 96 97 97 98 98 99 99 99 99 99 100 100 100 100 100 100 100 99 98 98 97 97 96 96 96 96 96 96 95 95 95 94 94 93 93 92 92 92 92 92 92 92 93 93 93 93 94 95 95 96 97 97 98 99 100 100 101 101 102 102 103 103 104 104 104 105 105 105 105 106 106 106 106 106
94 94 93 94 94 94 94 95 95 95 95 96 96 97 98 98 98 98 99 99 99 99 100 100 101 101 101 100 100 99 98 98 97 97 97 97 97 97 97 96 96 96 95 94 94 93 93 93 93 93 93 93 94 94 94 95 95 95 96 96 97 97 98 99 100 100 101 101 102 102 103 103 104 104 104 105 105 105 106 106 106 106 106 106 107 107
92 92 92 92 93 93 94 94 95 95 95 96 96 97 98 98 98 98 98 99 99 99 100 101 101 101 101 100 100 99 98 98 98 98 98 98 98 97 97 96 96 95 95 95 94 94 94 94 94 95 95 96 96 96 96 97 97 97 97 98 98 99 99 100 100 101 102 102 102 103 103 103 104 104 104 104 105 105 105 106 106 106 106 107 107 107
90 91 91 92 92 92 93 94 95 95 95 96 96 97 97 97 97 98 98 99 99 100 100 100 101 101 101 101 100 99 99 98 98 98 98 98 98 97 97 96 96 96 96 96 96 96 96 97 97 97 98 98 98 98 98 98 98 98 98 99 99 99 100 100 100 101 101 101 102 102 102 102 103 103 103 104 104 104 104 105 105 105 106 106 106 106
90 90 91 91 92 93 93 94 95 95 96 96 96 96 96 96 96 97 98 99 100 100 100 100 100 101 101 101 101 100 99 99 99 98 98 98 98 97 97 97 97 97 97 98 98 99 99 100 100 100 100 100 100 100 100 99 99 99 99 99 99 99 99 99 99 99 100 100 100 100 100 100 100 101 101 101 102 102 102 103 103 103 104 104 104 105
89 90 91 92 92 93 94 94 95 95 95 95 96 96 96 96 96 97 98 99 99 99 100 100 100 100 101 101 101 100 100 99 99 99 98 98 98 98 98 98 98 99 100 101 101 102 102 102 102 102 102 102 101 101 100 100 99 99 98 98 98 98 98 97 97 97 97 97 97 97 97 97 97 98 98 98 99 99 99 100 100 100 101 101 102 102
90 90 91 92 93 93 94 94 94 95 95 95 96 96 97 97 96 97 97 98 98 99 99 100 100 101 101 101 101 100 99 99 99 99 99 99 100 100 100 100 101 102 103 103 104 104 104 104 104 104 103 103 102 101 100 99 98 97 97 96 96 95 95 95 94 94 93 93 93 93 93 94 94 94 95 95 95 96 96 97 97 97 98 98 99 99
90 91 92 92 93 93 93 93 94 94 95 95 95 96 96 97 97 97 97 98 98 98 98 99 100 101 101 101 100 99 99 99 99 99 100 101 102 102 102 103 104 105 105 106 106 106 106 105 105 104 104 103 102 100 99 97 96 95 94 94 93 92 92 91 91 91 90 90 90 90 90 90 90 91 91 92 92 92 93 93 94 94 94 95 95 96
90 91 92 92 93 93 93 93 94 95 95 95 95 96 96 96 96 97 97 98 98 98 98 99 100 101 101 101 100 99 99 99 100 101 102 103 104 104 104 105 106 107 107 108 108 107 107 106 105 104 103 102 101 99 97 95 94 93 92 91 90 89 89 88 88 87 87 87 86 86 86 86 87 87 88 88 89 89 89 90 90 91 91 91 92 92
91 91 92 92 92 93 93 93 94 95 95 95 95 95 96 96 97 97 97 98 98 98 98 99 100 101 102 102 101 100 100 100 101 103 104 106 106 106 106 107 108 109 109 109 108 108 107 106 105 103 102 100 99 96 94 93 91 90 89 88 88 87 86 85 85 84 84 83 83 82 82 82 83 83 84 84 85 86 86 87 87 88 88 88 89 89
90 91 91 92 92 93 93 93 94 94 95 95 95 95 96 96 97 97 97 98 98 98 98 99 100 102 103 104 103 102 101 102 103 104 106 107 108 108 107 108 109 109 109 109 108 107 106 104 103 102 100 98 96 94 92 90 89 88 87 86 85 84 84 83 82 81 80 79 79 78 78 78 79 79 80 81 81 82 83 83 84 84 85 85 86 86
90 90 91 91 92 93 93 93 94 94 94 95 95 95 96 96 97 97 98 98 98 99 99 100 101 103 104 106 105 104 103 104 105 106 107 108 109 109 108 108 108 109 108 107 106 105 104 103 101 100 98 95 93 91 89 88 87 86 85 84 83 82 81 80 79 78 77 76 76 75 75 75 75 75 76 77 77 78 79 80 81 81 82 82 83 83
90 90 90 91 92 92 93 93 94 94 94 95 95 96 96 97 97 98 98 99 99 100 101 102 103 104 105 106 107 106 105 105 106 107 108 109 109 109 108 108 107 107 106 105 104 103 102 100 99 97 95 92 90 88 87 86 85 84 83 82 81 80 79 77 76 75 74 74 73 72 72 72 72 72 72 73 74 74 75 76 77 78 79 80 80 80
90 90 90 91 91 92 93 93 94 94 95 95 95 96 97 98 98 99 99 100 101 101 102 104 105 106 107 107 108 107 106 106 106 106 107 108 108 108 107 106 106 105 104 103 102 100 99 98 96 94 92 90 88 86 85 84 83 81 80 79 78 77 76 75 74 73 72 71 71 70 70 69 69 69 69 70 70 71 72 73 74 75 76 76 77 77
89 90 90 91 91 92 93 94 94 94 95 95 96 96 97 98 99 100 101 102 102 103 104 105 106 107 107 108 108 107 106 105 105 105 106 106 107 106 105 104 103 103 102 101 99 98 97 96 94 92 89 87 86 84 83 82 80 79 78 77 76 75 74 73 72 71 70 69 68 68 68 67 67 67 67 67 67 68 68 69 70 71 72 73 74 74
89 90 90 91 91 92 93 94 94 95 95 96 97 98 98 99 100 102 102 103 104 105 106 106 107 107 108 108 108 106 105 104 104 104 104 105 105 105 103 101 100 100 99 98 97 96 95 93 91 89 87 85 84 82 81 80 78 77 76 75 74 73 72 71 70 69 68 67 66 66 66 66 66 66 65 65 65 65 66 66 67 68 69 70 71 71
89 90 91 91 92 92 93 94 95 95 96 97 98 99 99 100 101 103 104 104 105 105 106 107 107 107 107 107 106 105 103 102 101 101 102 103 103 102 100 99 98 97 97 96 95 94 92 90 88 86 84 83 81 80 78 77 76 75 74 73 72 71 70 69 68 67 66 66 65 65 65 65 65 65 64 64 64 64 64 64 65 65 66 67 68 68
89 90 91 91 92 93 93 94 96 96 97 98 99 100 100 101 102 103 104 105 105 105 106 106 106 106 106 105 104 103 101 99 99 99 99 100 100 99 98 96 95 95 94 93 92 91 90 88 85 83 81 80 78 77 76 75 74 73 72 71 70 69 68 67 67 66 65 64 64 64 64 64 64 64 64 63 63 63 63 63 63 63 64 64 65 66
90 90 91 92 93 93 94 96 97 98 99 100 100 101 102 102 103 104 104 104 104 105 105 105 105 105 104 103 102 101 99 97 96 96 97 97 97 96 95 93 93 93 92 91 90 88 87 85 82 80 78 77 75 74 73 72 72 71 70 69 68 67 67 67 66 65 65 64 64 64 64 64 63 63 63 63 62 62 62 62 62 62 62 63 63 64
90 91 92 93 94 95 96 97 98 99 100 101 101 102 102 103 104 104 104 104 104 103 103 103 103 103 102 101 100 99 97 95 94 94 94 94 95 94 92 91 90 90 89 88 87 85 84 82 79 77 75 73 72 70 70 69 69 69 68 67 67 66 66 66 66 65 64 63 63 63 63 63 63 62 62 62 61 61 61 60 60 60 60 61 61 62
91 92 93 94 95 96 97 99 100 100 101 101 102 102 102 103 104 104 104 103 102 102 102 102 101 100 99 98 97 96 94 93 92 91 91 91 92 91 90 88 87 86 86 85 84 82 81 78 76 74 72 70 68 67 67 67 67 67 66 66 65 65 65 65 65 64 63 63 62 62 61 61 61 61 60 60 60 59 59 59 59 59 59 59 59 60
93 93 95 96 97 98 99 100 101 101 101 102 102 102 102 103 103 104 103 102 101 101 100 100 99 98 97 96 95 93 92 91 89 89 88 89 89 88 86 85 84 83 82 82 81 79 77 75 73 71 69 67 66 64 64 65 65 66 65 65 64 65 65 64 64 63 62 61 60 60 59 59 59 58 58 58 57 57 57 57 57 57 57 57 57 58
94 95 96 97 98 99 100 101 101 102 102 102 102 102 102 102 102 102 102 100 99 99 98 97 96 95 94 93 92 91 89 88 87 86 85 86 85 84 83 81 80 79 78 78 77 76 75 73 71 69 67 65 63 62 62 63 64 65 64 64 64 63 63 63 62 61 60 59 58 57 57 56 56 56 55 55 55 55 55 54 54 54 55 55 55 55
96 97 98 99 99 100 101 101 102 102 102 102 102 102 101 100 100 100 99 98 97 97 96 94 93 92 91 90 89 88 86 85 83 82 82 82 82 81 79 78 77 75 75 74 74 74 73 71 68 66 64 62 61 60 61 62 63 64 64 63 62 62 61 61 60 59 58 57 56 55 54 54 53 53 52 52 52 52 52 52 52 52 52 52 52 53
98 99 99 100 100 100 101 101 101 102 101 101 101 100 99 99 98 97 96 95 94 93 92 91 90 88 87 86 86 85 83 81 80 79 79 79 78 77 76 75 73 72 71 70 70 71 70 69 67 65 63 61 60 59 59 61 62 63 63 62 61 60 59 58 57 56 55 54 53 53 52 51 51 50 50 49 49 49 49 49 49 49 49 50 50 50
100 100 100 101 101 101 101 101 101 100 100 99 99 98 97 96 95 94 93 92 90 89 88 87 86 84 83 82 81 80 79 78 77 76 75 75 75 74 72 71 70 69 68 67 67 67 67 67 66 64 63 61 59 58 58 59 60 61 61 60 59 58 56 56 54 53 52 51 50 50 49 49 48 48 47 47 47 46 46 46 46 47 47 47 47 47
101 101 101 101 101 100 100 99 99 98 98 97 96 95 94 93 91 90 89 88 87 85 84 83 82 80 79 78 77 76 75 74 73 72 72 72 71 71 69 68 67 66 65 64 64 64 64 65 65 65 63 61 60 58 57 57 58 58 58 57 56 55 54 53 52 50 49 48 48 48 47 47 46 46 45 45 44 44 44 44 44 44 44 44 45 45
101 101 101 100 100 99 98 97 96 95 95 93 92 91 90 89 88 87 85 84 82 81 80 79 78 76 75 74 74 73 72 71 70 69 69 68 68 67 66 65 64 63 63 62 62 62 63 63 64 64 64 62 60 58 56 55 55 55 55 55 54 52 51 50 49 48 47 46 45 45 45 45 44 44 43 43 42 42 41 41 41 41 42 42 42 42
100 100 99 98 97 97 95 94 93 92 91 90 89 88 87 85 84 83 81 80 78 77 76 75 74 73 72 71 70 70 69 68 67 66 66 65 65 64 63 62 61 61 61 61 61 61 62 63 64 64 64 62 60 57 54 53 52 52 52 52 51 50 49 48 47 46 45 44 43 43 43 43 42 42 41 41 40 40 39 39 39 39 39 39 39 39
99 98 97 96 95 94 92 91 90 89 88 87 85 84 83 82 80 79 78 76 75 74 72 71 70 69 68 68 67 67 66 65 64 64 63 62 61 61 60 60 59 59 59 60 60 61 62 63 63 63 63 61 59 56 53 50 49 49 49 49 48 47 46 46 45 44 43 42 41 41 41 40 40 40 39 39 38 38 37 37 36 36 36 36 37 37
96 95 94 93 91 90 89 88 86 85 84 83 82 80 79 78 77 75 74 73 72 70 69 68 67 66 65 65 64 64 63 63 62 61 60 59 59 58 58 58 58 58 58 59 60 60 61 62 62 62 61 60 57 54 51 48 47 47 46 46 45 44 43 43 43 42 41 41 40 39 39 38 38 38 37 37 36 36 35 35 34 34 34 34 34 34
93 92 91 89 88 87 85 84 83 82 81 79 78 77 76 74 73 72 71 70 69 68 66 65 64 63 62 62 61 61 60 60 59 58 58 57 57 56 57 57 57 57 58 58 59 59 60 60 60 60 60 58 55 52 49 46 45 44 44 44 42 41 41 41 41 41 40 39 38 38 37 37 36 36 35 35 34 34 33 33 32 32 32 32 32 32
90 88 87 86 84 83 82 81 80 78 77 76 75 74 72 71 70 69 68 67 66 65 64 63 62 61 60 59 58 58 57 57 57 56 56 55 55 56 56 56 57 57 57 57 57 57 58 58 58 58 57 55 53 50 46 44 43 42 42 42 41 40 39 38 38 39 38 38 37 36 35 35 34 34 34 33 33 32 32 31 31 30 30 30 30 30
86 85 84 82 81 80 78 77 76 75 74 73 72 70 69 68 67 66 65 64 63 62 61 60 59 58 57 56 56 55 55 55 55 54 54 55 55 55 55 56 56 56 56 56 55 55 55 55 55 55 54 53 51 48 44 42 40 40 40 40 39 38 37 36 36 36 36 36 35 34 34 33 33 32 32 31 31 31 30 30 30 29 29 29 29 28
83 81 80 79 77 76 75 74 73 72 71 70 69 68 67 66 65 64 63 62 61 60 59 58 56 56 55 54 53 53 53 53 53 53 54 54 54 54 54 55 55 55 54 54 53 53 53 52 52 52 51 50 48 45 43 40 38 38 38 38 38 37 36 35 34 34 34 34 33 33 32 31 31 30 30 30 29 29 29 29 28 28 28 27 27 27
79 78 77 75 74 73 72 71 70 69 68 67 66 65 64 63 62 61 60 59 58 57 56 55 54 54 53 52 51 51 52 52 52 53 53 53 53 53 53 53 53 53 52 52 51 51 50 49 49 49 49 48 46 43 41 38 37 36 36 36 36 36 35 33 33 32 32 32 32 31 30 30 29 29 28 28 28 28 27 27 27 27 26 26 26 26
76 74 73 72 71 70 69 68 67 66 65 64 63 62 61 61 60 59 58 57 56 55 54 53 53 52 52 51 51 51 51 51 51 52 52 52 52 52 52 51 51 50 50 49 49 48 47 47 46 46 46 45 44 42 39 37 35 34 34 34 34 34 33 32 31 30 30 30 29 29 29 28 27 27 26 26 26 26 26 26 25 25 25 25 25 25
72 71 70 69 68 67 66 65 64 63 62 62 61 60 59 58 57 56 56 55 54 53 53 52 52 52 52 51 51 51 50 50 50 51 51 51 50 50 50 49 49 48 47 47 46 45 44 44 43 43 43 42 41 40 38 35 33 32 32 32 32 32 31 30 29 28 28 28 27 27 27 27 26 25 25 25 24 24 24 24 24 24 24 23 23 23
69 68 67 66 65 64 63 62 62 61 60 59 58 57 56 55 55 54 54 53 52 52 52 52 52 52 52 52 51 51 50 50 50 49 49 49 48 48 48 47 46 46 45 44 43 42 41 40 40 40 40 40 39 38 36 34 32 31 30 30 30 30 29 29 28 27 26 26 26 25 25 25 24 24 23 23 23 23 22 22 22 22 22 22 22 22
66 65 64 63 62 61 61 60 59 58 57 56 55 54 54 53 53 52 52 52 51 51 51 51 52 52 52 52 52 51 51 50 49 48 48 47 46 46 45 45 44 43 43 42 40 39 38 37 37 37 37 38 37 36 34 32 30 29 29 29 29 28 28 27 27 26 26 25 25 24 24 24 23 23 22 22 21 21 21 21 21 20 20 20 20 20
63 62 61 60 59 59 58 57 56 55 54 53 52 52 51 51 51 51 51 50 51 51 51 51 51 51 51 51 51 51 50 50 49 48 47 45 45 44 43 42 42 41 40 39 37 36 34 33 33 34 35 35 36 35 33 30 28 27 27 27 27 27 27 26 26 26 26 25 25 24 23 23 22 22 21 21 20 20 20 20 19 19 19 19 18 18
60 59 58 58 57 56 55 55 54 53 52 51 50 49 49 49 49 49 50 50 50 50 50 51 51 51 51 50 50 49 49 48 48 47 46 45 43 42 42 41 40 39 37 36 34 33 31 30 30 30 32 33 34 34 32 30 28 26 26 26 26 26 26 26 26 25 25 25 24 24 23 23 22 21 20 20 20 19 19 19 18 18 18 17 17 17
57 57 56 55 54 54 53 52 51 50 49 48 48 48 48 48 48 48 49 49 49 50 50 50 50 50 50 49 48 48 47 47 46 45 44 43 43 42 41 39 38 37 35 33 32 30 28 27 26 27 29 31 32 32 31 29 27 26 26 25 25 25 25 25 25 25 25 25 24 24 23 23 22 21 20 20 19 19 18 18 18 17 17 16 16 16
55 54 53 53 52 51 51 50 49 48 47 47 47 47 47 47 47 48 48 48 49 49 49 49 49 49 48 48 47 46 45 45 44 43 43 42 41 40 39 38 37 35 33 31 30 28 26 24 23 23 26 28 29 30 30 29 27 26 25 25 25 25 25 25 25 25 25 25 24 24 23 23 22 21 21 20 19 19 18 18 17 17 16 16 16 15
52 52 51 50 50 49 49 48 47 46 46 46 46 46 46 46 47 47 47 48 48 48 48 48 48 48 47 46 45 44 43 43 42 41 41 40 39 39 38 36 35 34 32 30 29 27 25 22 21 21 23 25 27 27 28 28 27 26 26 25 25 25 25 25 25 24 24 24 24 24 23 23 22 22 21 20 19 19 18 18 17 17 17 16 15 15
Wind_Direction
286 286 287 288 288 289 289 290 290 291 291 292 292 293 293 293 294 294 294 295 295 295 295 295 295 295 295 295 294 294 294 294 294 294 294 294 294 294 294 293 293 292 292 291 291 290 289 289 288 288 287 287 286 286 285 285 284 284 283 282 282 281 281 280 280 279 278 278 277 277 276 275 275 274 273 273 272 271 271 270 270 269 268 268 267 267
286 286 287 288 288 289 289 289 290 290 291 291 292 292 293 293 294 294 294 294 295 295 295 295 295 295 295 295 294 294 294 294 294 294 294 294 294 294 293 293 292 292 291 291 290 289 289 289 288 288 287 287 286 286 285 285 284 283 283 282 282 281 281 280 280 279 278 278 277 276 276 275 274 274 273 272 272 271 270 270 269 269 268 268 267 266
286 286 287 288 288 288 289 289 290 290 291 291 292 292 293 293 294 294 294 294 294 294 294 295 295 295 295 294 295 295 295 295 294 294 294 294 294 293 293 292 292 291 291 290 290 289 289 288 288 288 287 287 286 285 285 284 284 283 283 282 282 281 281 280 279 279 278 278 277 276 275 275 274 273 273 272 271 271 270 269 269 268 268 267 267 266
286 286 287 287 288 288 288 289 289 290 290 291 291 292 292 293 293 293 294 294 294 294 294 294 294 295 294 294 294 294 294 294 294 294 294 294 293 293 292 292 291 291 290 290 290 289 289 288 288 287 287 286 286 285 285 284 284 283 283 282 282 281 281 280 279 279 278 277 277 276 275 274 274 273 272 272 271 270 270 269 269 268 268 267 267 267
286 286 287 287 287 288 288 289 289 290 290 291 291 292 292 292 293 293 293 294 294 294 294 294 294 294 294 294 294 294 294 294 294 294 294 293 293 292 292 291 291 291 290 290 290 289 289 288 288 287 287 286 286 285 285 284 284 283 283 282 282 281 281 280 279 279 278 277 276 276 275 274 273 273 272 272 271 270 270 269 269 268 268 268 267 267
286 286 286 287 287 288 288 288 289 289 290 290 291 291 292 292 292 293 293 293 293 294 294 294 294 294 294 294 294 294 294 294 293 293 293 293 292 292 292 291 291 291 290 290 290 289 289 288 288 287 287 286 286 285 285 284 284 283 283 282 282 281 281 280 280 279 278 277 276 276 275 274 274 273 272 272 271 271 270 269 269 269 268 268 267 267
286 286 286 287 287 288 288 288 289 289 290 290 291 291 292 292 292 293 293 293 293 293 293 293 293 293 293 293 293 293 293 293 293 293 292 292 292 292 291 291 291 291 290 290 290 289 289 288 288 287 287 286 286 285 285 285 284 284 283 283 282 282 281 280 280 279 278 278 277 276 275 275 274 273 273 272 271 271 270 270 269 269 268 268 267 267
285 286 286 287 287 288 288 289 289 289 290 290 291 291 292 292 292 293 293 293 293 293 293 293 293 293 293 293 293 293 293 293 292 292 292 292 292 291 291 291 291 291 290 290 290 289 289 289 288 288 287 287 286 286 285 285 285 284 284 283 283 282 281 281 280 279 279 278 277 277 276 275 274 274 273 272 272 271 271 270 269 269 268 268 267 267
286 286 287 287 287 288 288 289 289 290 290 290 291 291 292 292 292 293 293 293 293 293 293 293 293 293 293 293 292 292 292 292 292 292 292 292 292 292 292 291 291 291 291 291 290 290 290 289 289 288 288 287 287 287 286 286 285 285 284 284 283 282 282 281 281 280 279 278 278 277 276 276 275 274 274 273 272 272 271 270 270 269 268 268 267 267
286 286 287 287 288 288 289 289 289 290 290 291 291 291 292 292 293 293 293 293 293 293 293 293 293 293 292 292 292 292 292 292 292 292 292 292 292 292 292 292 292 292 292 291 291 291 291 290 290 289 289 288 288 287 287 286 286 285 285 284 284 283 282 282 281 280 280 279 278 278 277 276 275 275 274 273 273 272 271 270 270 269 268 268 267 267
286 287 287 288 288 288 289 289 290 290 291 291 291 292 292 292 292 293 293 293 293 293 293 292 292 292 292 292 292 292 292 292 293 293 293 293 293 292 293 293 293 293 293 292 292 292 291 291 290 290 289 289 288 288 287 287 286 286 285 285 284 284 283 282 281 281 280 279 279 278 277 277 276 275 274 274 273 272 271 270 270 269 268 268 267 267
287 287 288 288 288 289 289 290 290 291 291 292 292 292 292 292 293 293 292 292 292 292 292 292 292 292 292 292 292 292 293 293 293 293 293 293 293 293 294 294 294 293 293 293 293 292 292 291 291 290 290 289 289 288 288 287 287 286 286 285 285 284 283 283 282 281 281 280 279 278 278 277 276 275 274 274 273 272 271 270 270 269 268 268 267 266
287 287 288 288 289 289 290 290 291 291 292 292 292 292 293 293 293 292 292 292 292 292 292 292 292 292 292 292 292 293 293 294 294 294 294 294 294 294 294 295 294 294 294 293 293 292 292 292 291 291 290 290 289 288 288 288 287 287 287 286 285 285 284 283 283 282 281 280 279 279 278 277 276 275 275 274 273 272 271 271 270 269 268 268 267 266
288 288 289 289 289 290 291 291 292 292 292 292 292 292 292 292 292 292 292 291 291 291 292 292 292 292 292 292 293 293 294 294 295 295 295 295 295 295 295 295 295 295 294 294 293 293 292 292 292 291 290 290 289 289 289 289 288 288 287 287 286 285 285 284 283 282 281 281 280 279 278 277 276 276 275 274 273 272 272 271 270 269 268 268 267 266
288 289 290 290 291 291 292 292 292 292 292 292 292 292 292 292 292 292 291 291 292 292 292 292 292 293 293 293 293 294 294 295 295 295 295 295 295 295 295 295 295 295 294 294 293 293 293 292 292 292 291 291 290 290 290 290 289 289 288 288 287 286 285 284 283 283 282 281 280 279 278 277 277 276 275 274 273 273 272 271 270 269 269 268 267 267
289 290 291 291 291 292 292 292 292 292 292 292 292 292 292 292 292 292 292 292 292 292 293 293 293 293 293 293 294 294 295 295 295 295 295 295 295 295 295 295 295 295 294 294 294 293 293 293 292 292 291 291 291 291 291 291 291 290 289 288 288 287 286 285 284 283 282 281 280 279 278 277 276 276 275 274 273 273 272 271 271 270 269 268 268 267
290 291 291 292 292 292 292 292 292 291 292 292 292 292 292 292 292 292 292 293 293 293 293 293 294 294 294 294 294 295 295 295 295 295 295 295 295 295 295 295 295 295 294 294 294 293 293 293 293 292 292 292 292 292 292 292 291 291 290 289 289 288 287 286 285 283 282 281 280 279 278 277 276 275 275 274 273 273 272 272 271 270 269 269 268 267
291 291 292 292 292 292 292 292 291 291 292 292 292 292 292 292 293 293 293 293 293 294 294 294 294 294 294 294 294 295 295 295 296 295 295 295 295 295 295 295 295 295 294 294 294 294 293 293 293 292 292 293 293 293 293 293 292 292 291 290 289 288 288 287 286 284 283 282 281 280 278 277 276 275 274 273 273 272 272 271 271 270 270 269 269 268
291 291 291 291 291 291 292 292 292 292 292 292 293 293 293 293 293 293 293 293 294 294 294 294 294 294 294 294 294 295 295 295 295 295 295 295 295 295 295 295 295 295 294 294 294 294 294 293 293 293 293 293 294 294 294 293 293 292 292 291 290 289 288 288 287 286 285 283 282 281 279 278 277 276 274 273 273 272 272 271 271 270 270 270 269 268
291 291 291 291 292 292 292 292 292 293 293 293 293 293 293 293 293 294 294 294 294 294 294 294 294 294 294 294 294 294 295 295 295 295 295 295 295 295 295 295 295 295 295 294 294 294 294 294 294 294 294 294 295 295 295 294 294 293 292 292 291 290 289 289 288 287 286 285 283 282 281 279 278 277 275 274 273 272 272 271 271 270 270 270 269 269
291 291 291 292 292 292 292 293 293 293 293 293 293 293 293 293 293 294 294 294 294 294 294 294 294 294 294 294 294 294 295 295 295 296 296 296 295 295 295 295 295 295 295 295 294 294 294 294 294 295 295 295 296 296 295 295 294 294 293 292 291 291 290 289 289 288 287 286 285 283 282 281 280 278 277 275 274 273 272 271 271 270 270 270 269 269
291 292 292 292 292 292 292 293 293 293 293 293 293 293 293 293 293 293 294 294 294 294 294 294 294 294 294 294 294 294 295 295 296 296 296 296 296 295 295 295 295 295 295 295 295 295 294 295 295 295 296 296 296 296 296 296 295 294 294 293 292 291 291 290 289 289 288 287 286 285 284 283 281 280 279 277 276 274 273 272 271 270 270 269 269 269
292 292 292 292 292 292 292 293 293 293 293 293 293 293 293 293 293 294 294 294 294 294 294 294 294 294 294 294 295 295 295 295 296 296 296 296 295 295 295 295 295 295 295 295 295 295 295 295 296 296 296 297 297 297 296 296 295 295 294 293 293 292 292 291 290 289 289 288 287 286 285 284 283 282 280 279 277 276 274 273 272 271 270 269 269 268
292 292 292 292 292 292 292 293 293 293 293 293 293 293 293 294 294 294 294 294 294 294 294 295 295 295 295 295 295 295 295 296 296 296 296 296 295 295 295 295 295 295 295 295 295 295 295 296 296 296 297 297 297 297 297 296 295 295 294 294 293 293 292 292 291 290 290 289 289 288 287 285 284 283 281 280 278 277 275 274 273 271 270 269 268 268
292 292 292 292 293 293 293 293 293 293 294 294 294 294 294 294 294 294 294 295 295 295 295 295 295 295 295 296 296 296 296 296 296 296 296 296 295 295 295 295 296 295 295 295 295 295 295 296 296 296 297 297 297 297 296 296 295 295 294 294 294 293 293 293 292 292 291 291 290 289 288 286 285 283 282 281 279 278 277 275 274 272 271 270 269 268
292 293 293 293 294 294 294 294 294 294 295 295 295 295 295 295 296 295 295 295 295 296 296 296 296 296 296 296 296 296 296 296 296 296 296 296 296 295 295 295 295 295 295 295 295 296 296 296 296 296 297 297 297 297 296 296 295 295 294 294 294 294 294 293 293 292 292 292 291 289 288 287 285 284 283 282 280 279 277 276 275 273 272 270 269 268
293 294 294 294 295 295 295 295 295 296 296 296 296 296 296 296 297 297 296 296 296 297 297 297 296 296 297 297 297 296 297 297 297 296 296 296 296 295 295 295 295 295 295 296 296 296 296 296 296 296 297 297 297 297 296 296 295 295 295 295 295 295 294 294 293 293 293 292 291 290 288 287 286 284 283 282 281 279 278 277 275 274 272 271 269 268
295 295 296 296 296 296 296 297 297 297 297 297 297 297 297 297 297 297 297 297 297 297 297 297 297 297 297 297 297 297 297 297 297 296 296 296 295 295 295 295 296 296 296 296 296 296 296 296 296 296 296 297 297 297 296 296 296 295 295 295 295 295 294 294 294 293 293 292 291 290 288 287 286 284 283 282 281 280 278 277 276 274 273 271 270 269
297 297 297 297 297 298 298 298 298 298 298 298 298 298 298 298 298 297 297 297 297 297 297 297 297 297 297 297 297 297 297 297 297 297 296 296 295 295 295 296 296 296 296 297 297 297 297 296 297 297 297 297 297 297 297 296 296 296 295 295 295 295 295 294 294 294 293 292 291 290 289 287 286 285 284 283 281 280 279 278 276 275 273 272 271 269
298 298 299 299 299 299 299 299 299 299 299 299 298 298 298 298 298 298 297 297 297 297 297 297 297 297 297 297 297 297 297 297 297 297 296 296 295 295 296 296 296 296 297 297 297 297 297 297 297 297 297 297 297 297 297 297 297 296 296 296 296 296 295 295 294 294 294 293 292 290 289 288 287 286 284 283 282 281 280 278 277 275 274 272 271 270
300 300 300 300 300 300 300 299 299 299 299 299 299 298 298 298 298 297 297 297 297 297 297 297 297 297 297 297 297 297 297 297 297 297 296 296 296 296 296 296 297 297 297 297 297 298 298 298 297 297 297 297 297 298 298 298 297 297 297 296 296 296 295 295 294 294 294 293 292 291 290 289 288 287 286 284 283 282 280 279 277 276 274 273 271 270
301 301 301 300 300 300 300 300 299 299 299 299 298 298 298 298 298 297 297 297 297 297 297 297 297 297 297 297 297 297 297 297 297 297 296 296 296 296 297 297 297 298 298 298 298 298 298 298 298 298 298 298 298 298 299 299 298 297 297 296 296 296 296 295 295 295 294 294 293 292 291 290 289 288 287 285 284 283 281 280 278 277 275 273 272 270
301 301 301 301 300 300 300 300 299 299 299 298 298 298 298 298 298 297 297 297 297 297 297 297 297 297 297 297 297 297 297 297 297 297 296 296 296 297 297 298 298 298 298 298 298 298 298 298 299 299 298 298 299 299 300 299 298 297 297 297 297 296 296 296 295 295 295 295 294 293 292 292 290 289 288 287 285 284 282 281 279 277 276 274 272 271
301 301 301 301 300 300 300 299 299 299 299 298 298 298 298 298 298 298 297 297 297 297 297 297 298 298 298 298 298 297 297 297 297 297 297 297 297 297 298 298 298 299 299 299 299 299 299 299 299 299 299 299 299 300 300 300 299 298 297 297 297 297 297 297 296 296 296 295 294 294 293 292 291 290 289 288 286 285 283 281 280 278 276 275 273 271
301 301 301 300 300 300 300 299 299 299 299 298 298 298 298 298 298 298 298 298 298 298 298 298 298 298 298 298 298 298 298 297 297 297 297 297 298 298 298 299 299 299 299 299 300 300 300 299 299 299 299 299 300 301 301 300 299 298 297 297 298 298 298 297 297 297 296 296 295 294 294 293 292 291 290 288 287 285 284 282 281 279 277 276 274 272
301 301 300 300 300 300 299 299 299 299 299 299 298 298 298 298 298 298 298 298 299 299 299 299 299 299 299 298 298 298 298 298 298 298 298 298 298 299 299 299 300 300 300 300 300 300 300 299 299 299 299 299 300 301 301 301 300 298 298 298 298 298 298 298 298 297 297 296 295 295 294 293 292 291 290 289 288 286 285 283 281 280 278 277 275 273
301 300 300 300 300 300 299 299 299 299 299 299 299 299 299 299 299 299 299 299 299 299 299 299 299 299 299 299 299 299 299 299 299 299 299 299 299 300 300 300 300 300 300 300 300 300 299 299 299 299 299 300 301 302 302 302 301 299 298 298 298 299 299 298 298 297 297 296 295 295 294 293 293 291 290 289 288 287 286 284 282 281 279 277 276 274
301 300 300 300 300 300 300 299 299 299 299 299 299 299 299 299 299 300 300 300 300 300 300 300 300 300 300 299 299 299 299 299 299 300 300 300 301 301 301 301 301 301 301 300 300 299 299 299 298 299 299 300 301 302 303 303 302 300 299 299 299 299 299 298 298 297 297 296 296 295 294 294 293 292 291 290 289 288 286 285 283 282 280 278 276 274
301 301 300 300 300 300 300 300 300 299 299 299 299 300 300 300 300 300 300 300 301 300 300 300 300 300 300 300 300 300 300 300 300 300 301 301 301 302 302 301 301 301 300 300 299 299 298 298 298 299 299 300 301 303 303 303 303 301 300 300 299 299 299 298 298 297 297 296 296 295 294 294 293 292 291 290 290 288 287 286 284 283 281 279 277 275
301 301 301 300 300 300 300 300 300 300 300 300 300 300 300 301 301 301 301 301 301 301 301 301 301 301 301 300 300 300 300 301 301 301 302 302 302 302 302 301 301 300 300 299 299 298 298 298 298 299 300 301 302 303 304 304 303 302 301 300 300 299 298 298 297 297 296 296 296 295 295 294 293 293 292 291 290 289 288 286 285 283 282 280 278 276
301 301 301 301 301 300 300 300 300 300 300 300 300 301 301 301 301 301 301 301 301 301 302 301 301 301 301 301 301 301 301 302 302 302 302 302 302 302 302 301 300 300 299 299 299 298 298 298 299 299 300 301 302 304 305 305 304 303 302 300 300 299 299 298 297 297 297 296 296 295 295 294 294 293 292 291 290 289 288 287 286 284 282 280 279 277
301 301 301 301 301 301 301 301 300 301 301 301 301 301 302 302 302 302 302 302 302 302 302 302 302 302 302 302 302 302 302 302 303 303 303 302 302 302 301 301 300 299 299 299 298 298 299 299 299 300 301 302 303 304 305 305 304 303 302 300 299 299 299 298 298 298 297 297 297 296 295 295 294 293 293 292 291 290 289 287 286 284 283 281 279 277
302 302 302 301 301 301 301 301 301 301 301 302 302 302 302 303 303 303 303 303 303 303 303 303 303 303 303 303 303 303 303 303 303 303 303 302 302 301 301 300 300 299 299 299 299 299 299 300 300 300 301 302 303 304 304 305 305 303 302 300 299 299 298 299 299 298 298 298 297 297 296 296 295 294 293 292 291 290 289 288 287 285 283 282 280 278
302 302 302 302 301 301 301 301 301 301 302 302 302 303 303 303 303 303 303 304 304 304 304 304 304 304 304 304 304 304 304 304 304 303 303 303 302 301 301 300 299 299 299 299 299 300 300 300 301 301 301 301 302 303 304 305 305 303 301 300 299 299 299 299 299 299 299 298 298 297 297 296 296 295 294 293 292 291 290 289 287 286 284 282 281 279
303 302 302 302 302 301 301 301 301 302 302 303 303 304 304 304 304 304 304 304 304 304 304 304 304 304 304 305 305 305 305 305 304 304 303 302 302 301 300 300 300 299 299 300 300 300 301 301 301 301 301 301 301 302 304 304 304 303 302 300 299 300 300 300 301 300 300 299 299 298 298 297 297 296 295 294 294 293 291 290 288 287 285 284 282 280
303 303 302 302 302 302 301 302 302 303 303 303 304 304 304 304 304 304 304 304 304 305 305 305 305 305 305 306 306 306 306 306 305 304 303 302 301 301 300 300 300 300 300 301 301 301 302 302 302 302 301 301 301 302 303 304 304 303 302 301 300 301 301 302 302 302 301 301 300 299 299 298 297 297 296 296 295 294 293 291 290 289 287 285 284 282
303 303 302 302 302 302 302 302 303 303 304 304 304 304 304 304 304 304 304 305 305 305 305 305 305 306 306 307 307 307 307 306 305 305 303 303 302 301 301 300 300 300 301 301 302 303 303 303 303 302 301 301 301 302 303 304 304 304 303 302 301 302 302 303 303 303 302 302 301 300 299 298 298 297 297 297 296 295 294 293 292 290 289 287 285 284
304 303 303 302 302 302 302 303 303 304 304 304 304 304 304 304 304 304 305 305 305 305 306 306 306 307 307 307 308 308 307 307 306 305 304 303 302 302 301 301 301 302 302 303 303 303 303 303 303 302 301 300 300 301 303 304 305 304 303 303 303 303 304 304 304 304 303 302 302 301 300 299 298 298 297 297 296 295 295 294 292 291 290 288 286 285
304 303 303 302 302 302 303 303 304 304 304 304 304 304 304 304 305 305 305 306 306 306 306 307 307 308 308 308 308 308 307 307 306 305 305 304 304 303 303 303 303 303 303 303 304 304 303 303 302 301 299 299 299 301 303 304 305 305 304 303 303 304 304 304 304 304 303 303 302 302 301 300 299 298 297 296 295 295 294 294 293 292 290 289 287 285
304 303 303 303 303 303 303 304 304 304 304 305 305 305 305 305 305 306 306 307 307 307 307 308 308 309 309 309 309 309 308 307 306 305 305 305 304 304 304 304 305 305 305 305 305 304 303 302 300 299 297 297 299 301 303 304 305 305 305 305 305 305 305 305 305 304 304 303 302 302 301 300 299 298 297 296 295 294 293 292 292 291 290 289 287 285
304 304 303 303 303 304 304 304 305 305 305 305 306 306 306 306 307 307 307 308 308 308 309 309 309 310 310 310 309 309 308 307 306 305 305 305 305 305 305 306 306 306 306 306 306 305 304 302 300 297 296 297 298 301 303 305 306 306 307 307 307 307 307 306 306 305 305 304 303 303 302 301 300 299 298 297 295 294 292 291 291 290 289 288 286 285
Height
10473 10471 10470 10469 10468 10464 10461 10459 10458 10456 10453 10451 10450 10448 10446 10444 10442 10440 10439 10438 10436 10433 10431 10428 10426 10424 10421 10419 10418 10416 10414 10413 10412 10411 10410 10409 10408 10406 10404 10403 10401 10399 10398 10396 10395 10394 10393 10391 10389 10388 10387 10386 10384 10383 10381 10379 10378 10376 10375 10374 10373 10371 10371 10369 10368 10367 10366 10365 10364 10363 10362 10361 10359 10359 10358 10356 10355 10354 10353 10353 10353 10352 10351 10351 10351 10351
10468 10466 10464 10463 10461 10459 10455 10453 10451 10450 10448 10445 10443 10441 10439 10438 10435 10433 10431 10429 10428 10425 10423 10420 10418 10416 10413 10411 10409 10408 10407 10406 10404 10403 10402 10401 10399 10398 10396 10394 10393 10391 10389 10388 10387 10385 10384 10383 10381 10380 10378 10377 10375 10374 10372 10371 10369 10368 10366 10365 10364 10363 10361 10360 10359 10358 10356 10355 10354 10353 10351 10350 10349 10348 10347 10346 10344 10343 10342 10341 10341 10340 10340 10339 10339 10339
10462 10460 10458 10457 10456 10453 10449 10447 10445 10444 10442 10440 10438 10435 10433 10431 10428 10426 10424 10422 10419 10417 10414 10413 10410 10408 10405 10403 10401 10400 10399 10398 10396 10395 10394 10392 10391 10389 10388 10386 10384 10383 10381 10379 10378 10377 10375 10374 10373 10371 10369 10368 10366 10364 10363 10361 10360 10358 10357 10356 10354 10353 10353 10351 10349 10348 10347 10346 10344 10343 10341 10339 10338 10337 10336 10334 10333 10332 10331 10330 10329 10328 10328 10328 10327 10327
10457 10454 10452 10451 10449 10447 10444 10442 10439 10438 10436 10434 10432 10429 10428 10425 10423 10420 10418 10415 10412 10409 10406 10404 10402 10400 10398 10395 10394 10392 10391 10389 10388 10387 10386 10384 10382 10380 10379 10377 10375 10374 10372 10371 10369 10368 10366 10365 10363 10362 10360 10359 10357 10355 10354 10353 10351 10349 10348 10347 10346 10344 10343 10341 10340 10339 10337 10336 10334 10332 10330 10329 10327 10325 10324 10323 10321 10320 10319 10318 10317 10316 10316 10316 10315 10315
10451 10449 10446 10445 10443 10440 10438 10436 10434 10432 10430 10428 10426 10424 10421 10419 10416 10414 10411 10408 10406 10403 10399 10396 10394 10392 10389 10388 10386 10384 10383 10382 10380 10379 10377 10375 10373 10371 10369 10368 10366 10364 10363 10361 10360 10358 10357 10356 10354 10353 10351 10349 10348 10346 10344 10343 10341 10340 10339 10338 10336 10334 10333 10332 10330 10328 10326 10324 10323 10321 10319 10317 10315 10314 10312 10310 10309 10308 10307 10306 10305 10304 10304 10304 10303 10303
10444 10443 10441 10439 10436 10434 10431 10429 10428 10426 10424 10422 10419 10418 10416 10413 10411 10408 10405 10402 10399 10396 10393 10389 10387 10384 10382 10380 10378 10377 10376 10374 10373 10371 10369 10367 10364 10363 10361 10359 10357 10355 10354 10352 10351 10349 10348 10346 10344 10343 10341 10339 10338 10336 10335 10333 10332 10331 10329 10328 10326 10325 10323 10321 10319 10318 10315 10313 10311 10309 10307 10305 10303 10301 10299 10298 10297 10296 10294 10294 10293 10293 10292 10292 10291 10291
10438 10437 10436 10433 10431 10428 10426 10423 10421 10419 10418 10416 10413 10411 10409 10407 10404 10402 10399 10396 10393 10389 10386 10383 10379 10377 10374 10372 10371 10369 10368 10366 10364 10363 10361 10358 10356 10354 10352 10350 10348 10346 10344 10343 10341 10339 10338 10336 10335 10333 10331 10329 10328 10326 10325 10324 10323 10321 10320 10318 10317 10315 10313 10311 10308 10306 10304 10301 10299 10297 10294 10293 10291 10289 10287 10286 10284 10283 10282 10281 10281 10280 10279 10279 10279 10279
10433 10430 10429 10427 10424 10422 10419 10417 10415 10414 10412 10410 10407 10404 10402 10399 10398 10395 10393 10389 10386 10383 10379 10376 10372 10368 10366 10364 10363 10361 10360 10359 10357 10354 10352 10349 10348 10345 10343 10341 10339 10337 10335 10333 10332 10330 10328 10326 10325 10323 10321 10319 10318 10316 10315 10314 10313 10311 10310 10308 10306 10304 10302 10299 10297 10294 10292 10289 10286 10284 10282 10280 10278 10276 10274 10273 10272 10271 10269 10269 10268 10268 10267 10266 10266 10266
10428 10424 10422 10421 10419 10416 10413 10409 10408 10408 10406 10404 10401 10399 10396 10393 10390 10388 10385 10382 10379 10376 10373 10369 10364 10360 10357 10356 10354 10353 10352 10351 10349 10347 10344 10341 10338 10336 10334 10332 10329 10328 10326 10323 10321 10319 10318 10316 10314 10313 10311 10309 10307 10306 10304 10303 10302 10301 10299 10298 10296 10293 10291 10288 10286 10283 10279 10277 10274 10272 10269 10268 10266 10264 10262 10261 10259 10258 10257 10256 10255 10254 10254 10254 10253 10253
10422 10419 10416 10414 10413 10411 10408 10404 10401 10399 10399 10398 10395 10393 10391 10388 10384 10381 10378 10374 10371 10368 10366 10362 10358 10353 10349 10346 10345 10345 10344 10343 10340 10338 10336 10333 10330 10327 10324 10323 10320 10318 10316 10313 10311 10309 10307 10305 10303 10301 10299 10298 10296 10295 10294 10293 10291 10290 10288 10286 10284 10282 10279 10276 10273 10271 10268 10265 10262 10259 10258 10255 10253 10251 10249 10248 10246 10245 10244 10243 10242 10241 10241 10241 10240 10240
10416 10413 10411 10408 10406 10403 10402 10399 10396 10394 10393 10391 10388 10385 10384 10382 10380 10376 10371 10367 10363 10360 10357 10354 10351 10347 10343 10339 10336 10335 10336 10334 10332 10329 10326 10323 10321 10318 10316 10313 10311 10308 10306 10303 10299 10298 10296 10294 10291 10289 10288 10286 10285 10284 10283 10281 10281 10279 10277 10275 10273 10270 10268 10264 10261 10258 10256 10253 10250 10248 10245 10243 10241 10238 10236 10234 10233 10231 10231 10229 10229 10228 10228 10228 10228 10227
10409 10407 10405 10402 10399 10397 10394 10393 10390 10388 10386 10384 10381 10378 10374 10373 10373 10371 10366 10361 10356 10353 10349 10346 10342 10339 10336 10332 10329 10327 10326 10326 10323 10320 10316 10313 10311 10308 10306 10304 10301 10298 10295 10292 10289 10286 10284 10283 10281 10278 10276 10275 10274 10273 10271 10271 10269 10268 10266 10264 10261 10258 10255 10252 10249 10246 10244 10241 10238 10236 10233 10231 10228 10226 10224 10222 10220 10219 10218 10217 10216 10216 10215 10215 10214 10214
10403 10401 10399 10396 10393 10391 10388 10386 10384 10381 10379 10377 10374 10371 10367 10364 10363 10362 10359 10354 10350 10346 10343 10339 10334 10330 10326 10324 10322 10321 10319 10318 10314 10311 10308 10304 10301 10298 10297 10294 10291 10287 10284 10281 10278 10274 10273 10271 10269 10267 10264 10263 10262 10261 10260 10259 10258 10257 10254 10252 10249 10246 10243 10240 10238 10234 10232 10229 10226 10224 10221 10219 10216 10214 10212 10210 10208 10207 10206 10204 10204 10203 10203 10203 10203 10203
10396 10394 10392 10389 10386 10384 10383 10380 10378 10374 10371 10369 10367 10364 10361 10358 10355 10353 10350 10346 10342 10339 10337 10333 10328 10322 10318 10315 10314 10313 10313 10311 10307 10303 10299 10294 10291 10289 10288 10285 10280 10276 10273 10271 10267 10263 10260 10259 10258 10255 10253 10251 10249 10249 10249 10248 10247 10245 10243 10240 10238 10234 10231 10228 10226 10223 10221 10218 10215 10213 10210 10208 10205 10203 10201 10199 10197 10196 10194 10193 10193 10192 10191 10191 10191 10191
10390 10388 10385 10383 10379 10378 10376 10374 10371 10368 10364 10362 10360 10358 10354 10351 10348 10345 10342 10338 10334 10331 10329 10326 10321 10315 10310 10306 10305 10305 10305 10303 10299 10295 10291 10286 10281 10279 10278 10276 10271 10266 10261 10259 10256 10252 10249 10248 10246 10244 10241 10239 10238 10238 10237 10236 10235 10233 10231 10228 10225 10223 10219 10217 10214 10211 10209 10207 10204 10202 10199 10198 10195 10193 10190 10188 10186 10185 10183 10183 10181 10181 10181 10181 10181 10181
10384 10382 10379 10376 10373 10371 10369 10367 10364 10360 10357 10354 10352 10350 10347 10343 10339 10336 10334 10331 10327 10323 10321 10318 10313 10307 10301 10297 10296 10298 10298 10296 10291 10287 10283 10278 10273 10269 10268 10267 10263 10256 10251 10248 10245 10242 10239 10237 10234 10232 10230 10228 10227 10226 10226 10225 10224 10221 10219 10216 10213 10211 10208 10206 10203 10200 10198 10196 10194 10192 10190 10188 10185 10183 10181 10179 10177 10175 10174 10173 10171 10171 10171 10170 10170 10171
10378 10375 10373 10369 10367 10364 10361 10359 10356 10353 10350 10347 10344 10342 10339 10336 10332 10328 10325 10322 10319 10316 10313 10309 10306 10301 10294 10288 10285 10286 10289 10289 10285 10279 10274 10270 10264 10259 10258 10258 10253 10247 10241 10237 10234 10232 10229 10226 10224 10221 10219 10218 10218 10217 10216 10214 10213 10210 10208 10205 10202 10199 10196 10194 10191 10189 10187 10186 10184 10182 10180 10178 10176 10174 10171 10169 10168 10166 10164 10163 10162 10161 10161 10161 10161 10161
10371 10369 10366 10363 10360 10357 10354 10351 10348 10345 10343 10340 10337 10334 10331 10327 10324 10321 10318 10314 10311 10308 10304 10301 10297 10293 10288 10283 10277 10275 10278 10280 10277 10271 10266 10261 10256 10251 10249 10247 10244 10238 10232 10228 10225 10223 10219 10216 10213 10211 10209 10209 10208 10208 10206 10204 10202 10199 10197 10194 10191 10188 10186 10183 10181 10179 10177 10175 10173 10171 10170 10168 10166 10164 10163 10161 10159 10158 10156 10154 10153 10153 10152 10151 10151 10151
10364 10361 10359 10356 10353 10350 10347 10344 10341 10338 10335 10332 10329 10326 10322 10318 10315 10313 10309 10306 10303 10300 10297 10293 10288 10284 10280 10276 10271 10268 10269 10271 10269 10264 10258 10253 10248 10242 10238 10236 10233 10228 10223 10219 10216 10213 10210 10206 10204 10201 10201 10200 10199 10198 10196 10194 10191 10189 10186 10183 10181 10178 10175 10173 10171 10168 10166 10164 10163 10161 10160 10158 10157 10156 10154 10153 10151 10149 10148 10146 10145 10144 10143 10143 10143 10143
10357 10354 10353 10350 10347 10343 10339 10336 10333 10331 10328 10324 10321 10318 10314 10310 10307 10304 10301 10298 10295 10292 10289 10285 10281 10276 10271 10268 10264 10261 10261 10262 10260 10256 10250 10244 10239 10233 10229 10227 10224 10219 10213 10209 10206 10204 10201 10197 10194 10193 10192 10191 10190 10188 10186 10184 10182 10179 10176 10174 10171 10168 10166 10163 10161 10159 10157 10155 10153 10152 10150 10149 10148 10146 10146 10144 10143 10142 10140 10139 10138 10136 10136 10135 10134 10134
10351 10348 10344 10343 10341 10336 10332 10328 10326 10323 10321 10318 10314 10311 10307 10304 10300 10296 10293 10290 10287 10283 10279 10276 10271 10267 10263 10260 10256 10253 10252 10253 10251 10248 10241 10236 10229 10224 10219 10218 10215 10211 10205 10201 10198 10194 10191 10188 10186 10184 10184 10183 10181 10179 10177 10174 10172 10169 10167 10164 10161 10159 10157 10155 10153 10150 10148 10146 10144 10143 10141 10140 10139 10138 10137 10136 10134 10134 10133 10131 10130 10129 10128 10127 10126 10126
10345 10341 10338 10336 10333 10330 10326 10322 10318 10316 10313 10311 10308 10303 10299 10297 10293 10289 10284 10281 10279 10275 10271 10266 10262 10258 10254 10251 10248 10244 10244 10244 10243 10239 10234 10227 10220 10213 10210 10209 10207 10203 10197 10193 10189 10186 10183 10180 10178 10177 10176 10174 10173 10170 10168 10166 10163 10160 10158 10155 10153 10151 10149 10146 10144 10142 10139 10138 10136 10134 10133 10132 10130 10129 10128 10127 10126 10125 10124 10123 10123 10121 10121 10119 10119 10118
10339 10335 10331 10328 10326 10323 10319 10316 10312 10308 10306 10303 10300 10296 10293 10289 10286 10281 10277 10273 10270 10266 10262 10258 10253 10249 10246 10242 10239 10236 10235 10234 10233 10231 10226 10219 10211 10205 10201 10200 10198 10194 10189 10184 10181 10178 10174 10172 10171 10170 10169 10167 10164 10163 10160 10158 10154 10152 10149 10147 10144 10143 10141 10138 10136 10134 10132 10130 10129 10127 10125 10123 10122 10121 10119 10118 10118 10117 10116 10115 10114 10113 10113 10112 10111 10111
10332 10328 10324 10321 10319 10316 10313 10309 10304 10301 10298 10294 10291 10288 10284 10281 10278 10273 10269 10265 10261 10258 10253 10249 10244 10240 10236 10233 10230 10228 10226 10225 10224 10221 10216 10209 10203 10197 10194 10192 10189 10186 10180 10176 10173 10170 10167 10165 10164 10163 10162 10159 10158 10155 10153 10150 10147 10144 10141 10139 10137 10135 10133 10131 10128 10126 10124 10123 10121 10119 10118 10116 10114 10113 10111 10110 10109 10108 10108 10107 10106 10106 10105 10104 10104 10103
10324 10321 10318 10314 10311 10308 10304 10301 10297 10293 10289 10286 10283 10279 10275 10271 10268 10263 10259 10256 10252 10249 10245 10241 10236 10231 10226 10223 10221 10218 10216 10215 10214 10212 10206 10201 10194 10189 10186 10184 10182 10178 10173 10168 10166 10163 10160 10158 10157 10156 10154 10153 10151 10149 10146 10143 10139 10136 10134 10132 10130 10128 10126 10123 10121 10119 10118 10116 10114 10112 10109 10108 10106 10104 10103 10103 10101 10101 10099 10099 10098 10098 10097 10096 10096 10096
10317 10314 10311 10307 10304 10300 10296 10292 10288 10284 10280 10276 10273 10269 10265 10261 10257 10253 10248 10244 10242 10239 10236 10231 10226 10222 10218 10215 10212 10209 10206 10206 10204 10202 10198 10192 10186 10181 10177 10176 10174 10171 10165 10161 10158 10156 10153 10151 10150 10149 10148 10146 10144 10143 10139 10136 10133 10130 10128 10125 10123 10121 10119 10116 10114 10112 10111 10109 10107 10104 10103 10100 10099 10098 10096 10095 10094 10093 10092 10091 10091 10090 10089 10089 10088 10088
10309 10306 10302 10299 10294 10291 10286 10282 10278 10274 10270 10266 10263 10259 10256 10252 10248 10243 10237 10233 10231 10229 10226 10221 10217 10213 10209 10206 10203 10200 10198 10197 10195 10192 10188 10184 10178 10173 10169 10168 10166 10163 10158 10154 10151 10148 10146 10144 10143 10142 10141 10139 10138 10136 10133 10130 10126 10123 10121 10119 10117 10115 10113 10109 10108 10106 10104 10103 10100 10098 10096 10093 10092 10090 10089 10088 10087 10086 10085 10084 10084 10083 10082 10082 10081 10081
10300 10297 10293 10289 10285 10281 10277 10273 10268 10264 10260 10256 10253 10249 10246 10242 10238 10233 10228 10224 10222 10219 10216 10212 10208 10205 10201 10197 10194 10191 10190 10188 10186 10183 10179 10175 10170 10166 10163 10161 10158 10156 10152 10148 10144 10141 10139 10138 10136 10135 10134 10133 10132 10130 10128 10124 10121 10117 10115 10113 10111 10109 10106 10103 10101 10099 10098 10096 10094 10091 10089 10087 10085 10084 10083 10081 10080 10079 10078 10078 10077 10076 10075 10074 10074 10074
10291 10288 10284 10280 10276 10271 10267 10263 10258 10254 10250 10246 10243 10239 10235 10232 10229 10224 10219 10216 10213 10210 10206 10203 10199 10197 10193 10189 10186 10183 10181 10180 10178 10175 10171 10167 10162 10158 10156 10154 10151 10149 10146 10142 10138 10134 10131 10131 10129 10129 10127 10126 10126 10124 10121 10118 10114 10111 10109 10107 10105 10103 10100 10098 10095 10093 10091 10089 10087 10085 10083 10081 10079 10078 10076 10075 10074 10073 10072 10071 10070 10069 10069 10068 10068 10068
10282 10278 10274 10270 10266 10262 10258 10253 10249 10244 10241 10237 10233 10229 10226 10223 10219 10215 10211 10208 10204 10201 10198 10194 10191 10189 10186 10182 10178 10175 10173 10171 10170 10168 10164 10159 10154 10151 10149 10147 10144 10143 10140 10136 10132 10127 10124 10123 10123 10122 10121 10120 10119 10118 10116 10112 10108 10105 10103 10101 10099 10096 10094 10091 10089 10088 10086 10084 10081 10079 10076 10074 10073 10072 10070 10069 10068 10067 10066 10065 10064 10063 10063 10062 10061 10061
10271 10268 10264 10260 10256 10253 10249 10244 10240 10236 10232 10228 10224 10221 10217 10214 10210 10207 10203 10200 10196 10193 10190 10186 10184 10181 10178 10175 10172 10168 10165 10163 10162 10159 10156 10151 10147 10144 10143 10140 10138 10136 10134 10131 10127 10122 10118 10115 10114 10114 10114 10113 10113 10112 10110 10107 10103 10099 10096 10094 10093 10091 10088 10086 10084 10082 10080 10078 10075 10073 10071 10069 10067 10066 10064 10064 10063 10061 10060 10059 10058 10058 10057 10056 10056 10056
10262 10258 10254 10251 10247 10243 10239 10236 10231 10228 10223 10219 10216 10212 10209 10205 10202 10198 10195 10192 10189 10186 10183 10179 10176 10174 10171 10168 10165 10162 10159 10156 10154 10152 10149 10145 10141 10138 10136 10134 10132 10129 10128 10126 10123 10119 10114 10109 10107 10106 10106 10106 10106 10105 10104 10101 10098 10094 10091 10089 10087 10084 10083 10080 10078 10077 10075 10073 10070 10068 10065 10063 10062 10061 10059 10058 10057 10056 10055 10054 10053 10052 10051 10051 10050 10050
10253 10249 10245 10241 10238 10234 10230 10226 10223 10219 10215 10211 10208 10204 10200 10197 10194 10191 10188 10184 10181 10178 10176 10173 10169 10167 10164 10161 10159 10156 10153 10150 10148 10145 10142 10139 10135 10133 10131 10129 10126 10124 10121 10119 10117 10114 10110 10106 10103 10100 10099 10098 10099 10099 10098 10096 10092 10089 10086 10083 10081 10079 10077 10075 10073 10071 10069 10068 10065 10063 10061 10059 10057 10056 10054 10053 10053 10051 10050 10049 10048 10047 10046 10046 10045 10045
10244 10240 10236 10233 10229 10225 10221 10218 10214 10211 10207 10203 10199 10196 10193 10189 10186 10183 10180 10177 10174 10171 10169 10166 10163 10161 10158 10155 10152 10149 10147 10144 10142 10139 10136 10133 10130 10127 10125 10123 10121 10119 10116 10113 10111 10108 10105 10102 10098 10095 10093 10091 10092 10093 10092 10090 10087 10084 10081 10078 10076 10074 10071 10069 10068 10066 10064 10063 10061 10058 10056 10054 10053 10051 10050 10049 10048 10046 10046 10044 10043 10043 10042 10041 10041 10040
10236 10231 10228 10224 10221 10217 10213 10209 10206 10202 10199 10195 10191 10188 10185 10182 10179 10176 10173 10170 10168 10165 10163 10160 10158 10154 10152 10149 10146 10143 10140 10138 10136 10133 10131 10128 10125 10123 10120 10118 10116 10114 10111 10108 10105 10103 10099 10096 10093 10091 10088 10086 10086 10086 10086 10085 10082 10079 10076 10074 10071 10069 10066 10064 10063 10061 10059 10058 10056 10054 10052 10050 10049 10047 10046 10044 10043 10043 10041 10040 10039 10038 10038 10037 10036 10036
10228 10224 10219 10216 10213 10209 10205 10201 10198 10194 10191 10188 10184 10181 10178 10174 10171 10169 10166 10163 10161 10158 10156 10154 10151 10149 10146 10143 10140 10137 10134 10132 10129 10128 10125 10123 10120 10118 10115 10113 10111 10109 10106 10103 10100 10098 10094 10091 10088 10085 10083 10081 10080 10080 10081 10079 10077 10074 10071 10069 10068 10065 10063 10060 10058 10056 10055 10054 10052 10050 10048 10046 10045 10043 10042 10041 10039 10038 10038 10036 10036 10034 10034 10033 10033 10032
10220 10216 10212 10208 10205 10201 10198 10194 10191 10187 10184 10180 10177 10174 10171 10168 10165 10163 10160 10157 10154 10153 10150 10148 10146 10143 10141 10138 10135 10132 10129 10126 10124 10122 10120 10118 10116 10113 10111 10108 10106 10104 10101 10098 10096 10093 10089 10086 10083 10080 10078 10076 10076 10075 10075 10074 10071 10069 10067 10065 10063 10061 10059 10056 10054 10052 10051 10049 10048 10046 10044 10043 10041 10040 10038 10037 10036 10034 10034 10033 10032 10031 10030 10029 10029 10028
10213 10208 10204 10201 10198 10194 10191 10187 10183 10180 10176 10173 10170 10167 10164 10161 10159 10156 10154 10151 10149 10146 10144 10142 10140 10138 10136 10133 10130 10127 10124 10121 10119 10117 10115 10113 10111 10108 10106 10103 10101 10099 10096 10094 10091 10088 10085 10082 10079 10076 10073 10072 10071 10071 10070 10069 10066 10064 10062 10061 10059 10058 10055 10053 10050 10048 10047 10046 10044 10043 10041 10039 10038 10036 10035 10034 10033 10031 10030 10029 10028 10028 10026 10026 10025 10024
10205 10201 10197 10193 10190 10187 10183 10180 10176 10173 10170 10167 10164 10161 10158 10156 10153 10151 10148 10146 10143 10141 10138 10136 10134 10133 10130 10128 10125 10123 10120 10117 10114 10113 10110 10108 10106 10104 10101 10098 10096 10093 10091 10089 10086 10084 10081 10078 10074 10072 10069 10068 10067 10066 10066 10064 10063 10059 10058 10056 10054 10053 10052 10049 10047 10045 10043 10042 10041 10039 10038 10036 10035 10033 10032 10031 10029 10028 10027 10026 10025 10024 10023 10023 10022 10021
10198 10194 10190 10186 10183 10180 10176 10173 10170 10167 10164 10161 10158 10155 10153 10150 10148 10145 10143 10140 10138 10135 10133 10131 10129 10127 10125 10123 10121 10118 10116 10113 10111 10108 10106 10104 10101 10099 10097 10094 10091 10089 10086 10084 10082 10079 10077 10074 10071 10068 10066 10064 10063 10062 10061 10060 10059 10056 10054 10052 10050 10049 10048 10046 10044 10042 10040 10039 10037 10036 10034 10033 10032 10030 10029 10028 10026 10025 10024 10023 10021 10021 10020 10019 10018 10018
10191 10187 10183 10180 10176 10173 10170 10167 10164 10161 10158 10155 10153 10149 10147 10145 10143 10140 10138 10135 10133 10130 10128 10126 10124 10122 10120 10118 10116 10114 10111 10109 10106 10104 10102 10099 10097 10095 10092 10089 10087 10084 10081 10079 10077 10075 10073 10070 10068 10065 10063 10061 10059 10058 10058 10056 10055 10053 10051 10048 10046 10045 10044 10043 10041 10039 10038 10036 10034 10033 10031 10030 10029 10027 10026 10024 10023 10022 10021 10019 10019 10018 10017 10016 10016 10015
10184 10181 10177 10174 10170 10167 10164 10161 10158 10155 10153 10150 10147 10144 10142 10139 10137 10134 10132 10129 10128 10125 10123 10121 10119 10117 10115 10114 10112 10110 10108 10106 10103 10100 10098 10096 10093 10090 10088 10085 10083 10080 10077 10075 10073 10071 10069 10066 10064 10061 10059 10058 10056 10054 10054 10053 10051 10049 10048 10046 10043 10042 10041 10039 10038 10036 10034 10033 10031 10029 10028 10027 10026 10024 10023 10021 10020 10019 10018 10016 10016 10014 10014 10013 10013 10012
10178 10174 10171 10168 10164 10161 10158 10156 10153 10150 10148 10145 10142 10139 10137 10134 10132 10129 10127 10124 10123 10120 10118 10116 10114 10112 10110 10108 10107 10106 10104 10102 10099 10097 10094 10091 10088 10086 10083 10081 10078 10076 10073 10071 10069 10067 10065 10063 10061 10058 10056 10054 10053 10051 10050 10049 10048 10046 10045 10043 10041 10039 10038 10036 10035 10034 10032 10030 10029 10027 10026 10024 10023 10021 10020 10019 10018 10016 10015 10014 10013 10012 10011 10011 10010 10009
10171 10168 10165 10162 10159 10156 10153 10150 10148 10145 10143 10140 10138 10135 10132 10129 10127 10124 10122 10120 10118 10116 10113 10111 10109 10107 10105 10104 10102 10101 10099 10098 10096 10093 10090 10087 10084 10081 10079 10076 10074 10071 10069 10067 10065 10063 10061 10060 10058 10056 10053 10051 10049 10048 10047 10046 10045 10044 10042 10040 10038 10036 10034 10033 10032 10031 10029 10028 10026 10024 10023 10022 10020 10019 10018 10016 10015 10014 10013 10011 10011 10009 10009 10008 10008 10007
10166 10163 10159 10156 10154 10151 10148 10145 10143 10141 10138 10136 10133 10131 10128 10125 10123 10120 10118 10116 10113 10111 10109 10107 10105 10103 10101 10099 10098 10096 10094 10093 10091 10088 10086 10083 10080 10077 10074 10072 10069 10068 10066 10064 10062 10061 10059 10057 10054 10053 10050 10048 10047 10046 10044 10043 10042 10041 10039 10037 10036 10034 10032 10031 10029 10028 10026 10025 10024 10023 10021 10019 10018 10017 10015 10014 10013 10011 10010 10009 10008 10008 10006 10006 10005 10004
10161 10158 10154 10151 10149 10146 10143 10141 10138 10136 10134 10131 10129 10126 10124 10121 10119 10116 10114 10111 10109 10107 10105 10103 10101 10098 10096 10094 10093 10091 10089 10087 10085 10083 10081 10078 10076 10073 10071 10068 10066 10064 10062 10061 10059 10058 10056 10054 10052 10049 10047 10045 10043 10042 10041 10041 10039 10038 10036 10034 10033 10031 10029 10028 10027 10025 10024 10023 10021 10020 10019 10018 10016 10015 10013 10012 10011 10009 10008 10008 10006 10006 10004 10004 10003 10003
10156 10153 10149 10146 10144 10141 10138 10136 10134 10132 10129 10128 10125 10123 10120 10118 10115 10113 10110 10108 10106 10103 10101 10099 10097 10095 10093 10091 10088 10086 10084 10081 10079 10078 10076 10074 10071 10069 10067 10065 10063 10061 10059 10058 10056 10055 10054 10052 10050 10048 10044 10042 10040 10039 10039 10038 10038 10036 10034 10032 10030 10029 10027 10026 10024 10023 10022 10021 10019 10018 10017 10016 10014 10013 10011 10010 10009 10008 10007 10006 10004 10004 10003 10002 10001 10001
10150 10148 10144 10142 10139 10136 10134 10132 10130 10128 10126 10124 10121 10119 10116 10114 10111 10109 10107 10104 10103 10100 10098 10095 10093 10091 10089 10087 10084 10082 10079 10077 10074 10073 10070 10068 10066 10064 10063 10061 10059 10058 10056 10055 10054 10053 10051 10050 10048 10045 10043 10039 10037 10036 10036 10036 10035 10034 10032 10029 10028 10026 10025 10024 10022 10021 10019 10018 10017 10016 10015 10014 10013 10011 10010 10009 10008 10006 10005 10004 10003 10002 10001 10001 10000 9999
10146 10143 10140 10138 10135 10133 10130 10128 10126 10124 10122 10120 10118 10116 10113 10111 10108 10106 10103 10101 10099 10096 10094 10091 10089 10087 10085 10083 10081 10078 10076 10073 10070 10068 10066 10064 10062 10060 10059 10057 10056 10054 10053 10053 10051 10051 10049 10048 10046 10044 10040 10037 10035 10034 10033 10033 10033 10031 10029 10028 10026 10024 10023 10021 10020 10019 10018 10016 10015 10014 10013 10012 10011 10009 10009 10007 10006 10004 10004 10003 10002 10001 10000 9999 9999 9998
10141 10138 10136 10133 10131 10128 10126 10124 10122 10120 10118 10116 10114 10112 10109 10107 10104 10103 10100 10098 10095 10093 10091 10088 10086 10084 10081 10079 10077 10074 10072 10069 10066 10064 10062 10059 10058 10056 10054 10053 10052 10051 10050 10049 10048 10048 10047 10046 10044 10043 10039 10036 10033 10032 10031 10030 10029 10028 10027 10026 10024 10023 10021 10019 10018 10017 10016 10014 10013 10012 10011 10009 10009 10008 10007 10006 10004 10003 10002 10001 10000 9999 9999 9998 9997 9996
10137 10134 10131 10129 10126 10124 10123 10120 10118 10116 10114 10112 10110 10108 10106 10104 10101 10099 10096 10094 10092 10089 10087 10084 10083 10080 10078 10076 10073 10071 10068 10066 10063 10061 10058 10056 10054 10053 10051 10050 10049 10048 10046 10046 10045 10044 10044 10043 10042 10041 10038 10035 10033 10031 10029 10028 10027 10026 10024 10023 10021 10020 10019 10018 10016 10014 10014 10013 10011 10010 10009 10008 10007 10006 10005 10004 10003 10001 10001 9999 9999 9998 9997 9996 9996 9995